Flag Weather past 2 weeks in Constanța, Romania

Now
31 °F

Overcast.


Feels Like: 25 °F
Forecast: 29 / 36 °F
Wind: 6 mph from North

Location: Constanta

Current Time: Nov 26, 2014 at 11:06:24 AM

Latest Report: Nov 26, 2014 at 10:00 AM


Visibility: 6 mi

Pressure: 30.33 "Hg

Humidity: 90%

Dew point: 28 °F

Location of ConstanțaLocation

Historic Weather in Constanța — Graph

°F

Constanța temperature yesterday

Maximum temperature yesterday: 38 °F (at 12:00 AM)
Minimum temperature yesterday: 31 °F (at 11:00 PM)
Average temperature yesterday: 35 °F

Past Weeks' High & Low Weather Summary

 TemperatureHumidityPressure
High58 °F (Nov 19, 12:00 PM)100% (Nov 18, 5:00 AM)30.42 "Hg (Nov 18, 5:00 AM)
Low30 °F (Nov 26, 6:00 AM)64% (Nov 24, 4:00 PM)29.81 "Hg (Nov 20, 5:00 AM)
Average46 °F90%30.15 "Hg
* Reported Nov 11 9:00 AM — Nov 26 9:00 AM, Constanța, Weather by CustomWeather, © 2014

Note: Actual official high and low records may vary slightly from our data, if they occured in-between our weather recording intervals... More about our weather records

Advertising

Constanța weather history for previous 24 hours

 ConditionsComfort  
Time TempWeatherWind HumidityBarometerVisibility
9:00 AM
Nov 26
31 °FOvercast.3 mph91%30.33 "Hg6 mi
8:00 AM30 °FOvercast.3 mph91%30.32 "Hg6 mi
7:00 AM30 °FOvercast.5 mph90%30.31 "Hg6 mi
6:00 AM30 °FOvercast.6 mph89%30.32 "Hg6 mi
4:00 AM31 °FOvercast.5 mph92%30.32 "Hg6 mi
3:00 AM31 °FOvercast.2 mph91%30.32 "Hg6 mi
2:00 AM31 °FOvercast.3 mph92%30.33 "Hg6 mi
1:00 AM31 °FOvercast.5 mph93%30.34 "Hg6 mi
12:00 AM31 °FOvercast.5 mph94%30.35 "Hg2 mi
11:00 PM
Nov 25
31 °FLight freezing rain. Overcast.5 mph96%30.36 "Hg2 mi
10:00 PM32 °FLight rain. Overcast.3 mph96%30.36 "Hg2 mi
9:00 PM32 °FOvercast.5 mph96%30.36 "Hg2 mi
8:00 PM32 °FLight snow. Overcast.5 mph96%30.36 "Hg2 mi
7:00 PM32 °FLight snow. Overcast.5 mph99%30.36 "Hg2 mi
6:00 PM33 °FLight snow. Overcast.5 mph98%30.37 "Hg2 mi
5:00 PM33 °FFog.6 mph97%30.36 "Hg2 mi
4:00 PM34 °FOvercast.3 mph95%30.36 "Hg6 mi
3:00 PM35 °FOvercast.3 mph94%30.37 "Hg6 mi
2:00 PM35 °FOvercast.3 mph94%30.37 "Hg6 mi
1:00 PM35 °FOvercast.5 mph92%30.38 "Hg6 mi
12:00 PM35 °FOvercast.6 mph94%30.38 "Hg6 mi
11:00 AM35 °FOvercast.6 mph94%30.39 "Hg6 mi
Weather by CustomWeather, © 2014

See weather overviewHow to use our weather pages